*** The Vicarage Weather Feed ***
The Vicarage Weather Feed Station Historical Data
 
Daily Summary for June 14, 2021 Units:  Metric    English   Both
Daily Weekly Monthly Yearly
  Current: High: Low: Average:
Temperature: 18.9 °C 20.2 °C 17 °C 18.1 °C
Dew Point: 14 °C 14.9 °C 12.9 °C 13.8 °C
Humidity: 73% 79% 71% 76%
Wind Speed: 8km/h 8km/h 0km/h 0.8km/h
Wind Gust: 25.7km/h 25.7km/h - -
WindNW - - NNW
Pressure: 1006.2 hPa 1006.7 hPa 1005.8 hPa -
Precipitation: 0.0 mm      
 
 
Tabular Data for June 14, 2021
Time Temperature Dew Point Pressure Wind Wind Speed Wind Gust Humidity Rainfall Rate (Hourly) solar
00:00 20.2 °C 14.9 °C 1006.5 hPa Calm     72% 0.0 mm W/m2
00:10 19.9 °C 14.9 °C 1006.5 hPa Calm     73% 0.0 mm W/m2
00:20 19.8 °C 14.8 °C 1006.4 hPa Calm     73% 0.0 mm W/m2
00:30 19.6 °C 14.8 °C 1006.6 hPa Calm     74% 0.0 mm W/m2
00:40 19.4 °C 14.7 °C 1006.6 hPa Calm     74% 0.0 mm W/m2
00:50 19.3 °C 14.7 °C 1006.5 hPa Calm     75% 0.0 mm W/m2
01:00 19.2 °C 14.6 °C 1006.6 hPa Calm     75% 0.0 mm W/m2
01:10 18.9 °C 14.6 °C 1006.5 hPa Calm     76% 0.0 mm W/m2
01:20 18.8 °C 14.5 °C 1006.5 hPa Calm     76% 0.0 mm W/m2
01:30 18.8 °C 14.4 °C 1006.3 hPa Calm     76% 0.0 mm W/m2
01:40 18.7 °C 14.3 °C 1006.3 hPa Calm     76% 0.0 mm W/m2
01:50 18.5 °C 14.4 °C 1006.6 hPa Calm     77% 0.0 mm W/m2
02:00 18.4 °C 14.3 °C 1006.5 hPa Calm     77% 0.0 mm W/m2
02:10 18.3 °C 14.2 °C 1006.4 hPa Calm     77% 0.0 mm W/m2
02:20 18.1 °C 14.2 °C 1006.5 hPa Calm     78% 0.0 mm W/m2
02:30 18.1 °C 14.2 °C 1006.5 hPa Calm     78% 0.0 mm W/m2
02:40 18 °C 14.1 °C 1006.5 hPa Calm     78% 0.0 mm W/m2
02:50 18.1 °C 13.9 °C 1006.2 hPa Calm     77% 0.0 mm W/m2
03:00 18.1 °C 13.9 °C 1006.2 hPa Calm     77% 0.0 mm W/m2
03:10 18 °C 13.9 °C 1006.2 hPa Calm     77% 0.0 mm W/m2
03:20 17.9 °C 14.1 °C 1006.1 hPa Calm     78% 0.0 mm W/m2
03:30 17.8 °C 13.7 °C 1005.9 hPa Calm     77% 0.0 mm W/m2
03:40 17.7 °C 13.8 °C 1005.8 hPa Calm     78% 0.0 mm W/m2
03:50 17.6 °C 13.9 °C 1005.8 hPa Calm     79% 0.0 mm W/m2
04:00 17.5 °C 13.8 °C 1005.8 hPa Calm     79% 0.0 mm W/m2
04:10 17.3 °C 13.7 °C 1005.9 hPa Calm     79% 0.0 mm W/m2
04:20 17.2 °C 13.6 °C 1005.8 hPa Calm     79% 0.0 mm W/m2
04:30 17.1 °C 13.4 °C 1005.8 hPa Calm     79% 0.0 mm W/m2
04:40 17.1 °C 13.4 °C 1005.8 hPa Calm     79% 0.0 mm W/m2
04:50 17.1 °C 13.4 °C 1005.8 hPa Calm     79% 0.0 mm W/m2
05:00 17 °C 13.1 °C 1006.0 hPa Calm   6.4 km/h 78% 0.0 mm W/m2
05:10 17 °C 13.1 °C 1006.0 hPa Calm   6.4 km/h 78% 0.0 mm W/m2
05:20 17.1 °C 13.2 °C 1006.0 hPa Calm     78% 0.0 mm W/m2
05:30 17 °C 13.1 °C 1006.0 hPa Calm     78% 0.0 mm W/m2
05:40 17.1 °C 13 °C 1005.9 hPa Calm     77% 0.0 mm W/m2
05:50 17.1 °C 13 °C 1006.1 hPa Calm     77% 0.0 mm W/m2
06:00 17 °C 12.9 °C 1006.1 hPa Calm     77% 0.0 mm W/m2
06:10 17 °C 12.9 °C 1006.1 hPa Calm     77% 0.0 mm W/m2
06:20 17 °C 12.9 °C 1006.0 hPa Calm     77% 0.0 mm W/m2
06:30 17.1 °C 13 °C 1006.0 hPa Calm     77% 0.0 mm W/m2
06:40 17.1 °C 13.1 °C 1005.9 hPa Calm     77% 0.0 mm W/m2
06:50 17.3 °C 13 °C 1006.2 hPa Calm     76% 0.0 mm W/m2
07:00 17.5 °C 13 °C 1006.5 hPa Calm   11.3 km/h 75% 0.0 mm W/m2
07:10 17.8 °C 13.1 °C 1006.4 hPa Calm   8 km/h 74% 0.0 mm W/m2
07:20 18.2 °C 13.2 °C 1006.3 hPa Calm   17.7 km/h 73% 0.0 mm W/m2
07:30 18.6 °C 13.4 °C 1006.6 hPa NW 6.4 km/h 16.1 km/h 72% 0.0 mm W/m2
07:40 18.8 °C 13.4 °C 1006.4 hPa North 8 km/h 16.1 km/h 71% 0.0 mm W/m2
07:50 18.9 °C 13.5 °C 1006.5 hPa NNW 1.6 km/h 19.3 km/h 71% 0.0 mm W/m2
08:00 19 °C 13.8 °C 1006.7 hPa NNW 6.4 km/h 20.9 km/h 72% 0.0 mm W/m2
08:10 19.1 °C 13.9 °C 1006.5 hPa NNW 6.4 km/h 17.7 km/h 72% 0.0 mm W/m2
08:20 19.2 °C 14 °C 1006.6 hPa NW 3.2 km/h 20.9 km/h 72% 0.0 mm W/m2
08:30 19.1 °C 13.9 °C 1006.4 hPa Calm   24.1 km/h 72% 0.0 mm W/m2
08:40 18.9 °C 14 °C 1006.2 hPa NW 8 km/h 25.7 km/h 73% 0.0 mm W/m2
Compliments of Weather Underground - 2 mb
This data is offered only as a general guide to local weather conditions. It should not be relied upon in lieu of officially disseminated weather information for determining possible risk to persons or property. This site, including all information contained therein, is made available as is without warranties of any kind, either express or implied. The Vicarage Weather Feed© includes links to other sites for user convenience only. The content of any linked third-party site is not controlled by The Vicarage Weather Feed©. Access to any third-party website through The Vicarage Weather Feed©, regardless of whether or not the third-party site is a linked site, is entirely at the users own risk. Externally sourced content or material is excluded from The Vicarage Weather Feed© copyright and is the copyright and property of the respective provider. Skywarn® and the Skywarn® logo are registered trademarks of the National Oceanic and Atmospheric Administration, used with permission.